Ottumwa, IA

11:12 AM CDT on June 27, 2017 (GMT -0500)
Ottumwa Industrial

Weather History for KOTM - November, 2011

Change the Weather History Date:

Friday, November 25, 2011

  Actual Average Record
Temperature  
Mean Temperature 50 °F 34 °F  
Max Temperature 55 °F 43 °F 65 °F (1960)
Min Temperature 45 °F 25 °F 3 °F (1977)
Degree Days  
Heating Degree Days 15 31  
Month to date heating degree days 543 611  
Since 1 July heating degree days 1046 1135  
Cooling Degree Days 0 0  
Month to date cooling degree days 0 0  
Year to date cooling degree days 1111 938  
Moisture  
Dew Point 44 °F    
Average Humidity 76    
Maximum Humidity 89    
Minimum Humidity 63    
Precipitation  
Precipitation 0.00 in 0.07 in 0.76 in (1992)
Month to date precipitation 2.70 2.03  
Year to date precipitation 32.22 35.35  
Sea Level Pressure  
Sea Level Pressure 29.84 in    
Wind  
Wind Speed 13 mph (South)    
Max Wind Speed 26 mph    
Max Gust Speed 35 mph    
Visibility 9 miles    
Events      
T = Trace of Precipitation, MM = Missing Value Source: NWS Daily Summary

Daily Weather History Graph

Daily Weather History Graph

Search for Another Location

Airport or City:

Trip Planner

Search our weather history database for the weather conditions in past years. The results will help you decide how hot, cold, wet, or windy it might be!

Date:

Astronomy

Nov. 25, 2011 Rise Set
Actual Time 7:08 AM CST 4:44 PM CST
Civil Twilight 6:38 AM CST 5:14 PM CST
Nautical Twilight 6:04 AM CST 5:48 PM CST
Astronomical Twilight 5:31 AM CST 6:21 PM CST
Moon 7:37 AM CST (11/25) 5:11 PM CST (11/25)
Length of Visible Light 10h 35m
Length of Day
9h 35m
New Moon, 0% of the Moon is Illuminated
Nov 25
New Moon
Dec 2
First Quarter
Dec 10
Full
Dec 17
Last Quarter
Dec 24
New

Hourly Weather History & Observations

Time (CST) Temp. Windchill Dew Point Humidity Pressure Visibility Wind Dir Wind Speed Gust Speed Precip Events Conditions
12:53 AM 50.0 °F - 39.0 °F 66% 29.92 in 10.0 mi SSW 15.0 mph - N/A   Clear
1:53 AM 51.1 °F - 39.9 °F 66% 29.91 in 10.0 mi SSW 16.1 mph 24.2 mph N/A   Clear
2:53 AM 50.0 °F - 39.9 °F 68% 29.91 in 10.0 mi SSW 17.3 mph - N/A   Clear
3:53 AM 48.0 °F - 39.9 °F 74% 29.90 in 10.0 mi South 13.8 mph - N/A   Clear
4:53 AM 46.9 °F - 41.0 °F 80% 29.89 in 10.0 mi South 15.0 mph - N/A   Clear
5:53 AM 46.0 °F 39.0 °F 41.0 °F 83% 29.87 in 10.0 mi South 17.3 mph - N/A   Clear
6:53 AM 45.0 °F 38.2 °F 39.9 °F 82% 29.88 in 10.0 mi SSW 15.0 mph - N/A   Clear
7:53 AM 45.0 °F 37.6 °F 41.0 °F 86% 29.88 in 10.0 mi South 17.3 mph - N/A   Clear
8:43 AM 48.2 °F - 42.8 °F 82% 29.87 in 10.0 mi SSW 21.9 mph 32.2 mph N/A   Mostly Cloudy
8:53 AM 48.0 °F - 42.1 °F 80% 29.88 in 10.0 mi SSW 19.6 mph 29.9 mph N/A   Overcast
9:53 AM 48.0 °F - 42.1 °F 80% 29.88 in 9.0 mi SW 17.3 mph 28.8 mph N/A   Overcast
10:53 AM 50.0 °F - 43.0 °F 77% 29.87 in 8.0 mi SW 15.0 mph 23.0 mph N/A   Overcast
11:53 AM 50.0 °F - 43.0 °F 77% 29.86 in 8.0 mi SSW 12.7 mph - N/A   Overcast
12:53 PM 50.0 °F - 44.1 °F 80% 29.84 in 8.0 mi South 16.1 mph - N/A   Overcast
1:53 PM 50.0 °F - 45.0 °F 83% 29.82 in 7.0 mi South 15.0 mph - N/A   Overcast
2:53 PM 51.8 °F - 44.6 °F 76% 29.79 in 7.0 mi South 16.1 mph - N/A   Overcast
3:53 PM 52.0 °F - 46.0 °F 80% 29.80 in 6.0 mi South 10.4 mph - N/A   Haze
4:53 PM 52.0 °F - 46.0 °F 80% 29.80 in 8.0 mi SSW 6.9 mph - N/A   Overcast
5:22 PM 51.8 °F - 46.4 °F 82% 29.78 in 8.0 mi South 5.8 mph - N/A   Overcast
5:53 PM 52.0 °F - 46.0 °F 80% 29.79 in 7.0 mi South 5.8 mph - N/A   Overcast
6:53 PM 52.0 °F - 46.9 °F 83% 29.78 in 8.0 mi SSE 5.8 mph - N/A   Overcast
7:53 PM 53.1 °F - 46.0 °F 77% 29.79 in 10.0 mi South 6.9 mph - N/A   Overcast
8:53 PM 53.1 °F - 46.0 °F 77% 29.78 in 10.0 mi South 9.2 mph - N/A   Overcast
9:53 PM 54.0 °F - 46.0 °F 75% 29.78 in 10.0 mi South 10.4 mph - N/A   Overcast
10:53 PM 54.0 °F - 45.0 °F 72% 29.76 in 10.0 mi South 13.8 mph - N/A   Overcast
11:51 PM 53.6 °F - 46.4 °F 77% 29.77 in 10.0 mi SSW 12.7 mph - N/A   Overcast
11:53 PM 55.4 °F - 46.4 °F 72% 29.77 in 10.0 mi SSW 12.7 mph - N/A   Overcast